FW9422 Weather Reports


time (UTC)temp
C
wind
direction
speed
KPH
gust
KPH
rain 1hr
cm
rain 24hr
cm
rain mn
cm
humidity
%
barometer
mb
20260507002554 22 360 8.0 19.3 0.00 0.00 0.00 58 1017.5
20260507002054 22 322 8.0 19.3 0.00 0.00 0.00 58 1017.6
20260507001605 22 335 9.7 20.9 0.00 0.00 0.00 57 1017.6
20260507001101 22 9 6.4 20.9 0.00 0.00 0.00 57 1017.6
20260507000558 22 5 8.0 20.9 0.00 0.00 0.00 57 1017.6
20260507000059 23 325 9.7 19.3 0.00 0.00 0.00 56 1017.5
20260506235559 23 342 8.0 16.1 0.00 0.00 0.00 57 1017.6
20260506235058 23 299 6.4 16.1 0.00 0.00 0.00 56 1017.5
20260506234559 23 311 6.4 16.1 0.00 0.00 0.00 56 1017.5
20260506234058 23 335 8.0 16.1 0.00 0.00 0.00 56 1017.5
20260506233559 23 321 6.4 16.1 0.00 0.00 0.00 55 1017.5
20260506233058 23 321 6.4 16.1 0.00 0.00 0.00 55 1017.6
20260506232558 23 343 4.8 14.5 0.00 0.00 0.00 56 1017.5
20260506232058 23 304 6.4 16.1 0.00 0.00 0.00 57 1017.5
20260506231557 23 282 8.0 17.7 0.00 0.00 0.00 56 1017.7
20260506231059 23 32 6.4 19.3 0.00 0.00 0.00 56 1017.7
20260506230558 23 360 9.7 19.3 0.00 0.00 0.00 55 1017.7
20260506230104 23 309 8.0 20.9 0.00 0.00 0.00 56 1017.7
20260506225557 23 352 8.0 20.9 0.00 0.00 0.00 56 1017.9
20260506225057 23 360 9.7 17.7 0.00 0.00 0.00 55 1017.9
20260506224557 23 360 9.7 17.7 0.00 0.00 0.00 56 1017.9
20260506224056 23 22 8.0 17.7 0.00 0.00 0.00 56 1017.8
20260506223556 23 329 9.7 17.7 0.00 0.00 0.00 56 1017.9
20260506223059 23 308 8.0 16.1 0.00 0.00 0.00 55 1017.9
20260506222556 23 23 6.4 16.1 0.00 0.00 0.00 54 1017.9
20260506222058 23 331 8.0 16.1 0.00 0.00 0.00 55 1018.0
20260506221556 23 19 8.0 16.1 0.00 0.00 0.00 53 1018.1
20260506221056 23 299 6.4 14.5 0.00 0.00 0.00 53 1018.1
20260506220556 23 302 4.8 14.5 0.00 0.00 0.00 53 1018.2
20260506220058 24 5 6.4 14.5 0.00 0.00 0.00 52 1018.3
20260506215558 23 352 4.8 14.5 0.00 0.00 0.00 52 1018.4
20260506215057 23 352 4.8 14.5 0.00 0.00 0.00 52 1018.4
20260506214555 24 35 3.2 12.9 0.00 0.00 0.00 53 1018.4
20260506214056 23 30 6.4 12.9 0.00 0.00 0.00 52 1018.6
20260506213557 24 5 4.8 14.5 0.00 0.00 0.00 52 1018.7
20260506213055 23 227 1.6 14.5 0.00 0.00 0.00 54 1018.7
20260506212557 23 304 4.8 14.5 0.00 0.00 0.00 53 1018.9
20260506212057 23 261 1.6 11.3 0.00 0.00 0.00 55 1018.9
20260506211559 23 294 3.2 12.9 0.00 0.00 0.00 55 1018.8
20260506211056 22 0 4.8 12.9 0.00 0.00 0.00 56 1019.0
20260506210557 22 339 3.2 12.9 0.00 0.00 0.00 55 1019.2
20260506210058 23 290 4.8 11.3 0.00 0.00 0.00 54 1019.2
20260506205558 22 306 4.8 11.3 0.00 0.00 0.00 54 1019.3
20260506205056 22 343 1.6 12.9 0.00 0.00 0.00 56 1019.2
20260506204603 22 318 4.8 12.9 0.00 0.00 0.00 55 1019.4
20260506204058 22 304 4.8 11.3 0.00 0.00 0.00 55 1019.4
20260506203559 23 348 3.2 12.9 0.00 0.00 0.00 54 1019.5
20260506203112 22 347 1.6 12.9 0.00 0.00 0.00 56 1019.5
20260506202559 22 284 4.8 12.9 0.00 0.00 0.00 55 1019.5
20260506202059 22 322 3.2 9.7 0.00 0.00 0.00 56 1019.7
20260506201620 22 255 3.2 12.9 0.00 0.00 0.00 55 1019.7
20260506201059 22 343 1.6 12.9 0.00 0.00 0.00 55 1019.8
20260506200558 21 257 6.4 12.9 0.00 0.00 0.00 56 1019.8
20260506200059 22 298 3.2 14.5 0.00 0.00 0.00 57 1019.7
20260506195559 21 0 3.2 14.5 0.00 0.00 0.00 59 1019.9
20260506195058 21 327 3.2 14.5 0.00 0.00 0.00 59 1019.7
20260506194557 21 0 6.4 14.5 0.00 0.00 0.00 57 1019.8
20260506194101 21 279 3.2 12.9 0.00 0.00 0.00 58 1019.9
20260506193559 21 352 3.2 12.9 0.00 0.00 0.00 59 1019.9
20260506193057 21 24 1.6 12.9 0.00 0.00 0.00 59 1019.9
20260506192559 21 0 3.2 12.9 0.00 0.00 0.00 59 1020.1
20260506192059 21 273 4.8 12.9 0.00 0.00 0.00 60 1020.1
20260506191559 21 352 3.2 12.9 0.00 0.00 0.00 61 1020.1
20260506191059 20 302 4.8 9.7 0.00 0.00 0.00 61 1020.2
20260506190559 20 335 3.2 12.9 0.00 0.00 0.00 62 1020.2
20260506190057 20 306 3.2 16.1 0.00 0.00 0.00 61 1020.1
20260506185559 20 0 3.2 16.1 0.00 0.00 0.00 64 1020.3
20260506185059 20 307 3.2 11.3 0.00 0.00 0.00 63 1020.2
20260506184603 20 277 3.2 11.3 0.00 0.00 0.00 64 1020.3
20260506184058 19 303 3.2 8.0 0.00 0.00 0.00 63 1020.3
20260506183559 20 348 1.6 12.9 0.00 0.00 0.00 63 1020.2
20260506183101 19 92 4.8 12.9 0.00 0.00 0.00 63 1020.3
20260506182559 19 352 3.2 6.4 0.00 0.00 0.00 65 1020.4
20260506182059 19 290 1.6 11.3 0.00 0.00 0.00 65 1020.4
20260506181601 19 266 4.8 11.3 0.00 0.00 0.00 65 1020.4
20260506181059 18 261 0.0 8.0 0.00 0.00 0.00 67 1020.5
20260506180559 18 337 1.6 12.9 0.00 0.00 0.00 67 1020.5
20260506180100 18 0 3.2 12.9 0.00 0.00 0.00 67 1020.4
20260506175559 18 313 3.2 12.9 0.00 0.00 0.00 68 1020.5
20260506175057 18 274 3.2 11.3 0.00 0.00 0.00 68 1020.4
20260506174559 17 0 1.6 9.7 0.00 0.00 0.00 69 1020.4
20260506174058 17 334 3.2 11.3 0.00 0.00 0.00 70 1020.4
20260506173557 17 294 3.2 11.3 0.00 0.00 0.00 70 1020.5
20260506173128 17 319 4.8 11.3 0.00 0.00 0.00 70 1020.7
20260506172556 17 312 3.2 6.4 0.00 0.00 0.00 70 1020.6
20260506172056 17 342 1.6 6.4 0.00 0.00 0.00 71 1020.5
20260506171558 16 223 0.0 9.7 0.00 0.00 0.00 72 1020.6
20260506171056 17 275 3.2 9.7 0.00 0.00 0.00 72 1020.7
20260506170557 16 247 1.6 9.7 0.00 0.00 0.00 72 1020.6
20260506170056 16 311 1.6 6.4 0.00 0.00 0.00 72 1020.6
20260506165557 16 304 1.6 6.4 0.00 0.00 0.00 73 1020.6
20260506165057 16 319 1.6 6.4 0.00 0.00 0.00 73 1020.6
20260506164556 16 342 0.0 8.0 0.00 0.00 0.00 73 1020.6
20260506164056 16 0 0.0 8.0 0.00 0.00 0.00 74 1020.6
20260506163557 16 185 1.6 6.4 0.00 0.00 0.00 74 1020.6
20260506163109 16 269 0.0 8.0 0.00 0.00 0.00 75 1020.7
20260506162556 16 310 1.6 8.0 0.00 0.00 0.00 75 1020.6
20260506162056 16 283 3.2 8.0 0.00 0.00 0.00 75 1020.6
20260506161603 16 256 3.2 6.4 0.00 0.00 0.00 76 1020.6
20260506161056 16 288 1.6 6.4 0.00 0.00 0.00 76 1020.6
20260506160556 15 302 3.2 6.4 0.00 0.00 0.00 77 1020.7
20260506155600 15 295 0.0 4.8 0.00 0.00 0.00 80 1020.6
20260506155057 15 252 0.0 6.4 0.00 0.00 0.00 81 1020.6
20260506154605 14 345 1.6 6.4 0.00 0.00 0.00 81 1020.7
20260506154057 14 309 3.2 6.4 0.00 0.00 0.00 81 1020.6
20260506153557 14 271 1.6 6.4 0.00 0.00 0.00 82 1020.6
20260506153103 13 259 1.6 6.4 0.00 0.00 0.00 82 1020.6
20260506152557 13 249 1.6 6.4 0.00 0.00 0.00 82 1020.5
20260506152058 13 0 1.6 6.4 0.00 0.00 0.00 83 1020.5
20260506151758 13 264 0.0 4.8 0.00 0.00 0.00 83 1020.5
20260506151728 13 264 0.0 4.8 0.00 0.00 0.00 83 1020.5
20260506151657 13 264 0.0 4.8 0.00 0.00 0.00 83 1020.5
20260506151605 13 264 0.0 4.8 0.00 0.00 0.00 83 1020.5
20260506151056 13 0 0.0 3.2 0.00 0.00 0.00 83 1020.6
20260506150558 13 261 0.0 4.8 0.00 0.00 0.00 83 1020.6
20260506145600 13 0 0.0 4.8 0.00 0.00 0.00 83 1020.5
20260506145056 13 262 1.6 4.8 0.00 0.00 0.00 83 1020.6
20260506144559 13 0 1.6 4.8 0.00 0.00 0.00 83 1020.6
20260506144056 13 250 1.6 6.4 0.00 0.00 0.00 83 1020.6
20260506143557 13 278 0.0 6.4 0.00 0.00 0.00 83 1020.4
20260506143100 13 284 0.0 6.4 0.00 0.00 0.00 83 1020.3
20260506142557 13 246 0.0 3.2 0.00 0.00 0.00 83 1020.4
20260506142056 13 0 0.0 4.8 0.00 0.00 0.00 83 1020.4
20260506141611 13 0 1.6 4.8 0.00 0.00 0.00 83 1020.3
20260506141057 13 0 0.0 4.8 0.00 0.00 0.00 83 1020.2
20260506140559 13 0 0.0 3.2 0.00 0.00 0.00 83 1020.2
20260506140104 13 272 0.0 3.2 0.00 0.00 0.00 83 1020.2
20260506135556 13 261 1.6 6.4 0.00 0.00 0.00 83 1020.2
20260506135057 13 0 0.0 6.4 0.00 0.00 0.00 83 1020.0
20260506134602 13 0 0.0 4.8 0.00 0.00 0.00 83 1019.9
20260506134057 13 273 1.6 4.8 0.00 0.00 0.00 83 1019.8
20260506133559 13 0 0.0 4.8 0.00 0.00 0.00 83 1019.8
20260506133102 13 0 1.6 8.0 0.00 0.00 0.00 83 1019.7
20260506132557 13 267 0.0 8.0 0.00 0.00 0.00 83 1019.7
20260506132057 13 288 1.6 8.0 0.00 0.00 0.00 83 1019.6
20260506131557 13 0 1.6 6.4 0.00 0.00 0.00 83 1019.6
20260506131057 13 0 0.0 6.4 0.00 0.00 0.00 83 1019.7
20260506130557 13 286 1.6 6.4 0.00 0.00 0.00 83 1019.6
20260506130055 13 279 1.6 4.8 0.00 0.00 0.00 83 1019.6
20260506125641 13 0 0.0 4.8 0.00 0.00 0.00 83 1019.5
20260506125056 13 0 0.0 3.2 0.00 0.00 0.00 83 1019.5
20260506124558 13 0 0.0 3.2 0.00 0.00 0.00 83 1019.4
20260506124058 13 0 0.0 3.2 0.00 0.00 0.00 83 1019.4
20260506123557 13 0 0.0 3.2 0.00 0.00 0.00 82 1019.4
20260506123057 13 0 0.0 1.6 0.00 0.00 0.00 82 1019.4
20260506122557 13 0 0.0 4.8 0.00 0.00 0.00 82 1019.4
20260506122058 13 0 0.0 4.8 0.00 0.00 0.00 82 1019.5
20260506121604 13 324 0.0 4.8 0.00 0.00 0.00 82 1019.4
20260506121056 13 290 0.0 1.6 0.00 0.00 0.00 82 1019.4
20260506120557 13 0 0.0 1.6 0.00 0.00 0.00 82 1019.3
20260506120111 13 0 0.0 1.6 0.00 0.00 0.00 82 1019.2
20260506115556 13 0 0.0 1.6 0.00 0.00 0.00 82 1019.2
20260506115057 13 0 0.0 1.6 0.00 0.00 0.00 82 1019.1
20260506114614 13 0 0.0 3.2 0.00 0.00 0.00 82 1019.2
20260506114056 13 0 0.0 3.2 0.00 0.00 0.00 82 1019.1
20260506113557 13 0 0.0 3.2 0.00 0.00 0.00 82 1019.1
20260506113057 13 0 0.0 3.2 0.00 0.00 0.00 82 1019.0
20260506112553 13 0 0.0 1.6 0.00 0.00 0.00 82 1019.0
20260506112057 13 0 0.0 4.8 0.00 0.00 0.00 82 1019.0
20260506111558 13 0 0.0 4.8 0.00 0.00 0.00 82 1019.0
20260506111057 13 0 0.0 4.8 0.00 0.00 0.00 82 1019.1
20260506110557 13 0 0.0 3.2 0.00 0.00 0.00 82 1019.0
20260506110058 13 289 0.0 1.6 0.00 0.00 0.00 82 1018.8
20260506105601 13 0 0.0 1.6 0.00 0.00 0.00 82 1018.9
20260506105056 13 0 0.0 1.6 0.00 0.00 0.00 82 1018.8
20260506104558 13 279 0.0 1.6 0.00 0.00 0.00 82 1018.8
20260506104057 13 0 0.0 3.2 0.00 0.00 0.00 82 1018.7
20260506103558 13 0 0.0 3.2 0.00 0.00 0.00 82 1018.8
20260506103057 13 294 0.0 3.2 0.00 0.00 0.00 82 1018.7
20260506102558 13 0 0.0 4.8 0.00 0.00 0.00 82 1018.8
20260506102056 13 0 0.0 4.8 0.00 0.00 0.00 82 1018.9
20260506101555 13 0 0.0 4.8 0.00 0.00 0.00 82 1018.8
20260506101057 13 274 0.0 3.2 0.00 0.00 0.00 82 1018.9
20260506100557 13 0 0.0 3.2 0.00 0.00 0.00 82 1018.9
20260506100055 13 0 0.0 0.0 0.00 0.00 0.00 82 1018.8
20260506095557 13 0 0.0 1.6 0.00 0.00 0.00 81 1018.7
20260506095057 13 0 0.0 1.6 0.00 0.00 0.00 81 1018.7
20260506094555 13 0 0.0 1.6 0.00 0.00 0.00 81 1018.7
20260506094057 13 274 0.0 0.0 0.00 0.00 0.00 81 1018.7
20260506093557 13 0 0.0 0.0 0.00 0.00 0.00 81 1018.7
20260506093113 13 0 0.0 3.2 0.00 0.00 0.00 81 1018.8
20260506092557 13 0 0.0 3.2 0.00 0.00 0.00 81 1018.9
20260506092057 13 0 0.0 3.2 0.00 0.00 0.00 81 1018.9
20260506091556 13 0 0.0 1.6 0.00 0.00 0.00 81 1018.9
20260506091053 13 287 0.0 1.6 0.00 0.00 0.00 81 1018.9
20260506090557 13 0 0.0 3.2 0.00 0.00 0.00 81 1018.9
20260506090126 13 0 0.0 6.4 0.00 0.00 0.00 81 1018.9
20260506085557 13 0 1.6 6.4 0.00 0.00 0.00 81 1018.8
20260506085056 13 303 0.0 4.8 0.00 0.00 0.00 81 1018.7
20260506084557 13 0 1.6 6.4 0.00 0.00 0.00 80 1018.8
20260506084058 13 290 0.0 6.4 0.00 0.00 0.00 80 1018.9
20260506083600 13 302 0.0 4.8 0.00 0.00 0.00 80 1019.0
20260506083100 13 0 0.0 6.4 0.00 0.00 0.00 80 1018.9
20260506082601 13 0 0.0 8.0 0.00 0.00 0.00 80 1018.9
20260506082058 13 320 0.0 8.0 0.00 0.00 0.00 80 1018.9
20260506081559 13 325 1.6 6.4 0.00 0.00 0.00 80 1018.9
20260506081057 13 0 1.6 4.8 0.00 0.00 0.00 80 1019.0
20260506080558 13 0 0.0 4.8 0.00 0.00 0.00 80 1018.9
20260506080110 13 0 0.0 3.2 0.00 0.00 0.00 80 1018.9
20260506073109 14 288 1.6 6.4 0.00 0.00 0.00 80 1018.6
20260506072601 14 314 1.6 6.4 0.00 0.00 0.00 80 1018.5
20260506072058 14 336 1.6 6.4 0.00 0.00 0.00 80 1018.5
20260506071555 14 288 1.6 6.4 0.00 0.00 0.00 80 1018.5
20260506071058 14 329 1.6 6.4 0.00 0.00 0.00 80 1018.5
20260506070558 14 0 0.0 4.8 0.00 0.00 0.00 80 1018.4
20260506062057 14 328 3.2 9.7 0.00 0.00 0.00 78 1018.2
20260506061603 14 330 3.2 9.7 0.00 0.00 0.00 78 1018.2
20260506061058 14 336 3.2 9.7 0.00 0.00 0.00 77 1018.1
20260506060558 14 331 1.6 6.4 0.00 0.00 0.00 77 1018.0
20260506051057 15 343 0.0 3.2 0.00 0.00 0.00 75 1017.9
20260506050557 15 340 0.0 3.2 0.00 0.00 0.00 75 1017.9
20260506045056 15 312 0.0 4.8 0.00 0.00 0.00 74 1017.8
20260506044611 15 323 0.0 4.8 0.00 0.00 0.00 74 1017.6
20260506044057 15 0 0.0 4.8 0.00 0.00 0.00 74 1017.6
20260506043600 15 308 0.0 6.4 0.00 0.00 0.00 74 1017.6
20260506043055 15 313 1.6 6.4 0.00 0.00 0.00 73 1017.4
20260506042557 15 279 0.0 4.8 0.00 0.00 0.00 73 1017.6
20260506042057 15 0 0.0 4.8 0.00 0.00 0.00 73 1017.4
20260506041609 15 319 0.0 4.8 0.00 0.00 0.00 73 1017.3
20260506041059 15 0 0.0 4.8 0.00 0.00 0.00 73 1017.2
20260506040557 15 0 0.0 4.8 0.00 0.00 0.00 73 1017.2
20260506035557 15 279 0.0 4.8 0.00 0.00 0.00 73 1017.1
20260506035058 15 0 0.0 4.8 0.00 0.00 0.00 73 1017.0
20260506034601 15 0 0.0 4.8 0.00 0.00 0.00 73 1017.0
20260506034057 15 303 0.0 3.2 0.00 0.00 0.00 73 1016.9
20260506033557 15 0 0.0 3.2 0.00 0.00 0.00 73 1016.8
20260506033057 15 0 0.0 3.2 0.00 0.00 0.00 73 1016.7
20260506032557 15 290 0.0 4.8 0.00 0.00 0.00 73 1016.6
20260506032057 15 0 0.0 6.4 0.00 0.00 0.00 73 1016.6
20260506031600 15 0 0.0 6.4 0.00 0.00 0.00 73 1016.6
20260506031057 15 0 1.6 6.4 0.00 0.00 0.00 73 1016.5
20260506030556 15 294 1.6 4.8 0.00 0.00 0.00 73 1016.5
20260506030056 15 302 0.0 6.4 0.00 0.00 0.00 73 1016.4
20260506025557 15 333 0.0 6.4 0.00 0.00 0.00 73 1016.3
20260506025057 15 261 3.2 6.4 0.00 0.00 0.00 73 1016.3
20260506024608 15 327 0.0 4.8 0.00 0.00 0.00 73 1016.3
20260506024058 15 0 0.0 4.8 0.00 0.00 0.00 73 1016.0
20260506023558 15 280 0.0 6.4 0.00 0.00 0.00 73 1016.0
20260506023058 15 0 0.0 6.4 0.00 0.00 0.00 72 1016.1
20260506022557 15 317 0.0 6.4 0.00 0.00 0.00 72 1016.0
20260506022057 15 0 1.6 6.4 0.00 0.00 0.00 72 1016.0
20260506021556 15 272 0.0 6.4 0.00 0.00 0.00 72 1016.0
20260506021059 15 327 1.6 4.8 0.00 0.00 0.00 72 1016.0
20260506020556 15 255 1.6 8.0 0.00 0.00 0.00 72 1015.9
20260506020123 15 261 1.6 8.0 0.00 0.00 0.00 72 1015.9
20260506015557 15 279 1.6 8.0 0.00 0.00 0.00 72 1016.0
20260506015058 15 306 0.0 6.4 0.00 0.00 0.00 72 1016.0
20260506014557 16 281 1.6 4.8 0.00 0.00 0.00 72 1016.0
20260506014100 16 0 0.0 6.4 0.00 0.00 0.00 72 1016.1
20260506013557 16 0 0.0 6.4 0.00 0.00 0.00 71 1016.1
20260506013056 16 268 1.6 9.7 0.00 0.00 0.00 71 1016.0
20260506012557 16 278 1.6 9.7 0.00 0.00 0.00 71 1016.1
20260506012059 16 286 0.0 9.7 0.00 0.00 0.00 71 1015.9
20260506011600 16 312 3.2 12.9 0.00 0.00 0.00 70 1016.0
20260506011057 16 299 0.0 12.9 0.00 0.00 0.00 70 1015.9
20260506010557 16 270 3.2 12.9 0.00 0.00 0.00 70 1015.8
20260506010057 16 241 3.2 11.3 0.00 0.00 0.00 70 1015.8
20260506005557 16 0 1.6 9.7 0.00 0.00 0.00 69 1015.8
20260506005057 16 0 0.0 9.7 0.00 0.00 0.00 69 1015.8
20260506004557 17 275 1.6 6.4 0.00 0.00 0.00 68 1015.8
20260506004057 17 0 0.0 1.6 0.00 0.00 0.00 68 1015.9
20260506003558 17 0 0.0 1.6 0.00 0.00 0.00 68 1015.7
20260506003057 17 0 0.0 1.6 0.00 0.00 0.00 68 1015.8